Regional Weather Roundup
Issued by NWS

Home | Current Version | Previous Version | Text Only | Print | Product List | Glossary Off
Versions: 1 2 3 4 5 6 7 8 9 10 11 12 13 14 15 16 17 18 19 20 21 22 23 24 25 26 27 28 29 30 31 32 33 34 35 36 37 38 39 40 41 42 43 44 45 46 47 48 49 50

748
ASUS43 KFSD 061702
RWRSD

WEATHER ROUNDUP FOR SOUTH DAKOTA
NATIONAL WEATHER SERVICE SIOUX FALLS SD
1200 PM CDT FRI MAY 06 2016

NOTE: "FAIR" INDICATES FEW OR NO CLOUDS BELOW 12,000 FEET WITH NO
SIGNIFICANT WEATHER AND/OR OBSTRUCTIONS TO VISIBILITY.


SDZ001>005-009-010-012>017-061800-
NORTHWEST AND NORTH CENTRAL SOUTH DAKOTA

CITY           SKY/WX    TMP DP  RH WIND       PRES   REMARKS
BUFFALO          N/A     72  46  39 N23       29.96R
FAITH            N/A     75  47  36 N23       29.92R
MOBRIDGE       SUNNY     81  32  17 N15       29.84R
$$

SDZ012>016-024>037-041>051-057-063-072>074-061800-
SOUTHWEST AND SOUTH CENTRAL SOUTH DAKOTA

CITY           SKY/WX    TMP DP  RH WIND       PRES   REMARKS
RAPID CTY ARPT CLOUDY    75  46  35 N29G36    29.93R
PIERRE         SUNNY     78  54  43 S8        29.84R
CUSTER         CLOUDY    76  28  17 NE12G17   30.05S
ELLSWORTH AFB  MOSUNNY   74  48  39 N24G33    29.93R
PHILIP         CLOUDY    77  55  46 W9        29.87R
PINE RIDGE     MOSUNNY   78  51  38 W6        29.93S
WINNER         FAIR      81  54  39 SW14G23   29.88R
$$

SDZ004>011-016>023-039-040-061800-
NORTHEAST SOUTH DAKOTA

CITY           SKY/WX    TMP DP  RH WIND       PRES   REMARKS
ABERDEEN       SUNNY     85  51  31 W7        29.80S
WATERTOWN      SUNNY     80  53  39 W15       29.81S
BROOKINGS      SUNNY     80  53  39 W18G29    29.82S
SISSETON         N/A     82  51  34 N7        29.76S
$$

SDZ017-020-022-023-036>040-048>070-061800-
SOUTHEAST SOUTH DAKOTA

CITY           SKY/WX    TMP DP  RH WIND       PRES   REMARKS
SIOUX FALLS    MOSUNNY   78  54  43 SW14G21   29.88F
HURON          SUNNY     82  54  37 W10       29.82S
MITCHELL       MOSUNNY   83  54  36 SW16G23   29.85F
YANKTON        SUNNY     79  52  38 SW16      29.89S
$$

ABBREVIATIONS USED IN REMARKS
   TC - TEMPERATURE IN CELSIUS
  WCI - WIND CHILL INDEX
   HX - HEAT INDEX
  VSB - VISIBILITY





USA.gov is the U.S. government's official web portal to all federal, state and local government web resources and services.